Location: Keewatin
(47.4004°N, 93.0827°W)
Time: 00:27:47
(UTC+00:00)

Envisat - Pass Details

Date: 13 December 2019
Orbit: 764 x 766 km, 98.1° (Epoch: 21 January)

Event Time Altitude Azimuth Distance (km) Brightness Sun altitude
Rises 12:47:41 0° 16° (NNE) 3,245 6.2 -10.2°
Reaches altitude 10° 12:50:03 10° 21° (NNE) 2,314 5.5 -9.9°
Maximum altitude 12:55:05 58° 100° (E) 892 3.8 -9.1°
Drops below altitude 10° 13:00:04 10° 180° (S) 2,296 5.8 -8.3°
Sets 13:02:24 0° 184° (S) 3,217 6.5 -8.0°
